Gainesville, FL

4:26 PM EST on January 21, 2018 (GMT -0500)
Gainesville Regional

Weather History for KGNV - July, 2013

Change the Weather History Date:

Sunday, July 14, 2013

  Actual Average Record
Temperature  
Mean Temperature 79 °F 81 °F  
Max Temperature 85 °F 91 °F 100 °F (1932)
Min Temperature 72 °F 72 °F 65 °F (1997)
Degree Days  
Heating Degree Days 0 0  
Month to date heating degree days 0 0  
Since 1 June heating degree days 0 0  
Since 1 July heating degree days 0 0  
Cooling Degree Days 14 16  
Month to date cooling degree days 224 224  
Year to date cooling degree days 1244 1173  
Since 1 June cooling degree days 712 663  
Growing Degree Days 28 (Base 50)    
Moisture  
Dew Point 72 °F    
Average Humidity 85    
Maximum Humidity 100    
Minimum Humidity 69    
Precipitation  
Precipitation T in 0.19 in 2.14 in (1955)
Month to date precipitation 7.97 2.91  
Year to date precipitation 25.22 26.02  
Snow  
Snow 0.00 in 0.00 in 0.00 in ()
Month to date snowfall 0.0 0.0  
Since 1 June snowfall 0.0 0.0  
Since 1 July snowfall 0.0 0.0  
Snow Depth 0.00 in    
Sea Level Pressure  
Sea Level Pressure 30.05 in    
Wind  
Wind Speed 6 mph (East)    
Max Wind Speed 18 mph    
Max Gust Speed 23 mph    
Visibility 9 miles    
Events      
T = Trace of Precipitation, MM = Missing Value Source: NWS Daily Summary

Daily Weather History Graph

Daily Weather History Graph

Search for Another Location

Airport or City:

Trip Planner

Search our weather history database for the weather conditions in past years. The results will help you decide how hot, cold, wet, or windy it might be!

Date:

Astronomy

Jul. 14, 2013 Rise Set
Actual Time 6:38 AM EDT 8:31 PM EDT
Civil Twilight 6:11 AM EDT 8:58 PM EDT
Nautical Twilight 5:39 AM EDT 9:30 PM EDT
Astronomical Twilight 5:04 AM EDT 10:04 PM EDT
Moon 12:22 PM EDT (7/14) No Moon Set
Length of Visible Light 14h 46m
Length of Day
13h 52m
Waxing Crescent, 35% of the Moon is Illuminated
Jul 14
Waxing Crescent
Jul 15
First Quarter
Jul 22
Full
Jul 29
Last Quarter
Aug 6
New

Hourly Weather History & Observations

Time (EDT) Temp. Heat Index Dew Point Humidity Pressure Visibility Wind Dir Wind Speed Gust Speed Precip Events Conditions
12:23 AM 73.4 °F - 71.6 °F 94% 30.02 in 10.0 mi SE 4.6 mph - N/A   Overcast
12:53 AM 73.0 °F - 71.1 °F 93% 30.01 in 10.0 mi SE 3.5 mph - N/A   Overcast
1:53 AM 73.0 °F - 70.0 °F 90% 30.00 in 10.0 mi East 5.8 mph - N/A   Mostly Cloudy
2:02 AM 71.6 °F - 69.8 °F 94% 30.01 in 9.0 mi East 5.8 mph - N/A   Mostly Cloudy
2:10 AM 71.6 °F - 69.8 °F 94% 30.01 in 6.0 mi East 4.6 mph - N/A   Mostly Cloudy
2:53 AM 72.0 °F - 70.0 °F 93% 29.99 in 5.0 mi East 4.6 mph - N/A   Overcast
3:32 AM 71.6 °F - 69.8 °F 94% 30.00 in 8.0 mi Calm Calm - N/A   Mostly Cloudy
3:53 AM 72.0 °F - 70.0 °F 93% 29.99 in 9.0 mi Calm Calm - N/A   Mostly Cloudy
4:53 AM 72.0 °F - 70.0 °F 93% 29.99 in 9.0 mi East 3.5 mph - N/A   Overcast
5:36 AM 71.6 °F - 69.8 °F 94% 30.01 in 6.0 mi East 3.5 mph - N/A   Overcast
5:53 AM 72.0 °F - 71.1 °F 97% 30.01 in 8.0 mi East 3.5 mph - N/A   Overcast
6:53 AM 73.0 °F - 71.1 °F 93% 30.02 in 5.0 mi SSE 4.6 mph - N/A   Overcast
7:14 AM 73.4 °F - 71.6 °F 94% 30.03 in 7.0 mi ESE 3.5 mph - N/A   Overcast
7:42 AM 73.4 °F - 71.6 °F 94% 30.03 in 7.0 mi Calm Calm - N/A   Overcast
7:53 AM 73.9 °F - 72.0 °F 93% 30.03 in 7.0 mi Calm Calm - N/A   Overcast
8:09 AM 73.4 °F - 71.6 °F 94% 30.04 in 9.0 mi East 3.5 mph - N/A   Overcast
8:53 AM 75.9 °F - 72.0 °F 87% 30.05 in 10.0 mi ENE 3.5 mph - N/A   Overcast
9:53 AM 78.1 °F - 72.0 °F 81% 30.07 in 10.0 mi ESE 5.8 mph - N/A   Overcast
10:09 AM 77.0 °F - 71.6 °F 83% 30.08 in 10.0 mi East 6.9 mph - N/A   Overcast
10:53 AM 79.0 °F - 72.0 °F 79% 30.08 in 10.0 mi ESE 6.9 mph - N/A   Mostly Cloudy
11:02 AM 80.6 °F 84.6 °F 71.6 °F 74% 30.08 in 10.0 mi ESE 8.1 mph - N/A   Overcast
11:53 AM 82.0 °F 86.7 °F 72.0 °F 71% 30.08 in 10.0 mi Variable 3.5 mph - N/A   Scattered Clouds
12:53 PM 82.9 °F 88.8 °F 73.0 °F 72% 30.08 in 10.0 mi East 4.6 mph - N/A   Mostly Cloudy
1:53 PM 84.9 °F 92.1 °F 73.9 °F 69% 30.07 in 10.0 mi East 8.1 mph - N/A   Scattered Clouds
2:53 PM 84.0 °F 91.2 °F 73.9 °F 72% 30.06 in 10.0 mi ENE 9.2 mph - N/A   Partly Cloudy
3:53 PM 82.9 °F 89.4 °F 73.9 °F 74% 30.06 in 10.0 mi East 11.5 mph 20.7 mph 0.00 in   Scattered Clouds
4:53 PM 82.0 °F 87.4 °F 73.0 °F 74% 30.06 in 10.0 mi ESE 13.8 mph - 0.00 in   Mostly Cloudy
5:53 PM 80.1 °F 84.2 °F 73.0 °F 79% 30.05 in 10.0 mi East 10.4 mph - N/A   Mostly Cloudy
6:05 PM 82.4 °F 88.2 °F 73.4 °F 74% 30.06 in 10.0 mi ESE 13.8 mph 20.7 mph N/A   Scattered Clouds
6:53 PM 82.0 °F 86.3 °F 71.1 °F 69% 30.06 in 10.0 mi ESE 9.2 mph - N/A   Clear
7:53 PM 80.1 °F 83.8 °F 72.0 °F 76% 30.09 in 10.0 mi ESE 8.1 mph - N/A   Mostly Cloudy
8:53 PM 77.0 °F - 71.1 °F 82% 30.08 in 10.0 mi East 5.8 mph - N/A   Clear
9:53 PM 75.9 °F - 71.1 °F 85% 30.10 in 10.0 mi East 3.5 mph - N/A   Clear
10:53 PM 75.0 °F - 71.1 °F 87% 30.11 in 10.0 mi East 4.6 mph - N/A   Clear
11:53 PM 73.9 °F - 71.1 °F 91% 30.11 in 10.0 mi East 5.8 mph - N/A   Clear